Time,TemperatureF,DewpointF,PressureIn,WindDirection,WindDirectionDegrees,WindSpeedMPH,WindSpeedGustMPH,Humidity,HourlyPrecipIn,Conditions,Clouds,dailyrainin,SoftwareType,DateUTC
2013-06-24 00:02:00,69.0,-99.9,30.11,North,-999,-999.0,-999.0,-999,-99.99,,,-99.99,,2013-06-24 04:02:00,
2013-06-24 00:12:00,69.0,-99.9,30.11,North,-999,-999.0,-999.0,-999,-99.99,,,-99.99,,2013-06-24 04:12:00,
2013-06-24 00:22:00,69.0,-99.9,30.11,North,-999,-999.0,-999.0,-999,-99.99,,,-99.99,,2013-06-24 04:22:00,
2013-06-24 00:53:00,69.0,-99.9,30.09,North,-999,-999.0,-999.0,-999,-99.99,,,-99.99,,2013-06-24 04:53:00,
2013-06-24 01:02:00,69.0,-99.9,30.09,North,-999,-999.0,-999.0,-999,-99.99,,,-99.99,,2013-06-24 05:02:00,
2013-06-24 01:12:00,69.0,-99.9,30.09,North,-999,-999.0,-999.0,-999,-99.99,,,-99.99,,2013-06-24 05:12:00,
2013-06-24 01:22:00,69.0,-99.9,30.09,North,-999,-999.0,-999.0,-999,-99.99,,,-99.99,,2013-06-24 05:22:00,
2013-06-24 01:30:00,69.0,-99.9,30.09,North,-999,-999.0,-999.0,-999,-99.99,,,-99.99,,2013-06-24 05:30:00,
2013-06-24 02:10:00,69.0,-99.9,30.09,North,-999,-999.0,-999.0,-999,-99.99,,,-99.99,,2013-06-24 06:10:00,
2013-06-24 02:16:00,69.0,-99.9,30.09,North,-999,-999.0,-999.0,-999,-99.99,,,-99.99,,2013-06-24 06:16:00,
2013-06-24 02:24:00,69.0,-99.9,30.09,North,-999,-999.0,-999.0,-999,-99.99,,,-99.99,,2013-06-24 06:24:00,
2013-06-24 02:30:00,68.0,-99.9,30.08,North,-999,-999.0,-999.0,-999,-99.99,,,-99.99,,2013-06-24 06:30:00,
2013-06-24 03:07:00,68.0,-99.9,30.08,North,-999,-999.0,-999.0,-999,-99.99,,,-99.99,,2013-06-24 07:07:00,
2013-06-24 03:16:00,68.0,-99.9,30.08,North,-999,-999.0,-999.0,-999,-99.99,,,-99.99,,2013-06-24 07:16:00,
2013-06-24 03:58:00,68.0,-99.9,30.07,North,-999,-999.0,-999.0,-999,-99.99,,,-99.99,,2013-06-24 07:58:00,
2013-06-24 04:28:00,68.0,-99.9,30.07,North,-999,-999.0,-999.0,-999,-99.99,,,-99.99,,2013-06-24 08:28:00,
2013-06-24 04:30:00,68.0,-99.9,30.06,North,-999,-999.0,-999.0,-999,-99.99,,,-99.99,,2013-06-24 08:30:00,
2013-06-24 04:56:00,68.0,-99.9,30.06,North,-999,-999.0,-999.0,-999,-99.99,,,-99.99,,2013-06-24 08:56:00,
2013-06-24 05:09:00,68.0,-99.9,30.06,North,-999,-999.0,-999.0,-999,-99.99,,,-99.99,,2013-06-24 09:09:00,
2013-06-24 05:16:00,68.0,-99.9,30.06,North,-999,-999.0,-999.0,-999,-99.99,,,-99.99,,2013-06-24 09:16:00,
2013-06-24 05:30:00,68.0,-99.9,30.04,North,-999,-999.0,-999.0,-999,-99.99,,,-99.99,,2013-06-24 09:30:00,
2013-06-24 06:00:00,68.0,-99.9,30.04,North,-999,-999.0,-999.0,-999,-99.99,,,-99.99,,2013-06-24 10:00:00,
2013-06-24 06:15:00,68.0,-99.9,30.04,North,-999,-999.0,-999.0,-999,-99.99,,,-99.99,,2013-06-24 10:15:00,
2013-06-24 06:25:00,68.0,-99.9,30.04,North,-999,-999.0,-999.0,-999,-99.99,,,-99.99,,2013-06-24 10:25:00,
2013-06-24 07:04:00,69.0,-99.9,30.03,North,-999,-999.0,-999.0,-999,-99.99,,,-99.99,,2013-06-24 11:04:00,
2013-06-24 07:17:00,69.0,-99.9,30.03,North,-999,-999.0,-999.0,-999,-99.99,,,-99.99,,2013-06-24 11:17:00,
2013-06-24 07:29:00,69.0,-99.9,30.03,North,-999,-999.0,-999.0,-999,-99.99,,,-99.99,,2013-06-24 11:29:00,
2013-06-24 07:30:00,69.0,-99.9,30.05,North,-999,-999.0,-999.0,-999,-99.99,,,-99.99,,2013-06-24 11:30:00,
2013-06-24 07:58:00,69.0,-99.9,30.05,North,-999,-999.0,-999.0,-999,-99.99,,,-99.99,,2013-06-24 11:58:00,
2013-06-24 08:07:00,69.0,-99.9,30.05,North,-999,-999.0,-999.0,-999,-99.99,,,-99.99,,2013-06-24 12:07:00,
2013-06-24 08:26:00,69.0,-99.9,30.05,North,-999,-999.0,-999.0,-999,-99.99,,,-99.99,,2013-06-24 12:26:00,
2013-06-24 08:30:00,72.0,-99.9,30.04,North,-999,-999.0,-999.0,-999,-99.99,,,-99.99,,2013-06-24 12:30:00,
2013-06-24 08:56:00,72.0,-99.9,30.04,North,-999,-999.0,-999.0,-999,-99.99,,,-99.99,,2013-06-24 12:56:00,
2013-06-24 09:07:00,72.0,-99.9,30.04,North,-999,-999.0,-999.0,-999,-99.99,,,-99.99,,2013-06-24 13:07:00,
2013-06-24 09:15:00,72.0,-99.9,30.04,North,-999,-999.0,-999.0,-999,-99.99,,,-99.99,,2013-06-24 13:15:00,
2013-06-24 09:24:00,72.0,-99.9,30.04,North,-999,-999.0,-999.0,-999,-99.99,,,-99.99,,2013-06-24 13:24:00,
2013-06-24 09:46:00,76.0,-99.9,30.03,North,-999,-999.0,-999.0,-999,-99.99,,,-99.99,,2013-06-24 13:46:00,
2013-06-24 10:04:00,75.0,-99.9,30.03,North,-999,-999.0,-999.0,-999,-99.99,,,-99.99,,2013-06-24 14:04:00,
2013-06-24 10:16:00,76.0,-99.9,30.03,North,-999,-999.0,-999.0,-999,-99.99,,,-99.99,,2013-06-24 14:16:00,
2013-06-24 10:25:00,76.0,-99.9,30.03,North,-999,-999.0,-999.0,-999,-99.99,,,-99.99,,2013-06-24 14:25:00,
2013-06-24 10:30:00,79.0,-99.9,30.02,North,-999,-999.0,-999.0,-999,-99.99,,,-99.99,,2013-06-24 14:30:00,
2013-06-24 10:38:00,76.0,-99.9,30.03,North,-999,-999.0,-999.0,-999,-99.99,,,-99.99,,2013-06-24 14:38:00,
2013-06-24 11:30:00,82.0,-99.9,30.01,North,-999,-999.0,-999.0,-999,-99.99,,,-99.99,,2013-06-24 15:30:00,
2013-06-24 12:05:00,82.0,-99.9,30.01,North,-999,-999.0,-999.0,-999,-99.99,,,-99.99,,2013-06-24 16:05:00,
2013-06-24 12:15:00,82.0,-99.9,30.01,North,-999,-999.0,-999.0,-999,-99.99,,,-99.99,,2013-06-24 16:15:00,
2013-06-24 12:25:00,82.0,-99.9,30.01,North,-999,-999.0,-999.0,-999,-99.99,,,-99.99,,2013-06-24 16:25:00,
2013-06-24 12:30:00,85.0,-99.9,30.00,North,-999,-999.0,-999.0,-999,-99.99,,,-99.99,,2013-06-24 16:30:00,
2013-06-24 13:15:00,85.0,-99.9,30.00,North,-999,-999.0,-999.0,-999,-99.99,,,-99.99,,2013-06-24 17:15:00,
2013-06-24 13:25:00,85.0,-99.9,30.00,North,-999,-999.0,-999.0,-999,-99.99,,,-99.99,,2013-06-24 17:25:00,
2013-06-24 13:30:00,87.0,-99.9,29.99,North,-999,-999.0,-999.0,-999,-99.99,,,-99.99,,2013-06-24 17:30:00,
2013-06-24 14:03:00,87.0,-99.9,29.99,North,-999,-999.0,-999.0,-999,-99.99,,,-99.99,,2013-06-24 18:03:00,
2013-06-24 14:15:00,87.0,-99.9,29.99,North,-999,-999.0,-999.0,-999,-99.99,,,-99.99,,2013-06-24 18:15:00,
2013-06-24 14:27:00,87.0,-99.9,29.99,North,-999,-999.0,-999.0,-999,-99.99,,,-99.99,,2013-06-24 18:27:00,
2013-06-24 14:30:00,86.0,-99.9,29.97,North,-999,-999.0,-999.0,-999,-99.99,,,-99.99,,2013-06-24 18:30:00,
2013-06-24 15:07:00,86.0,-99.9,29.97,North,-999,-999.0,-999.0,-999,-99.99,,,-99.99,,2013-06-24 19:07:00,
2013-06-24 15:13:00,86.0,-99.9,29.97,North,-999,-999.0,-999.0,-999,-99.99,,,-99.99,,2013-06-24 19:13:00,
2013-06-24 15:25:00,86.0,-99.9,29.97,North,-999,-999.0,-999.0,-999,-99.99,,,-99.99,,2013-06-24 19:25:00,
2013-06-24 15:46:00,88.0,-99.9,29.95,North,-999,-999.0,-999.0,-999,-99.99,,,-99.99,,2013-06-24 19:46:00,
2013-06-24 16:06:00,88.0,-99.9,29.95,North,-999,-999.0,-999.0,-999,-99.99,,,-99.99,,2013-06-24 20:06:00,
2013-06-24 16:24:00,88.0,-99.9,29.95,North,-999,-999.0,-999.0,-999,-99.99,,,-99.99,,2013-06-24 20:24:00,
2013-06-24 16:30:00,87.0,-99.9,29.94,North,-999,-999.0,-999.0,-999,-99.99,,,-99.99,,2013-06-24 20:30:00,
2013-06-24 16:35:00,88.0,-99.9,29.95,North,-999,-999.0,-999.0,-999,-99.99,,,-99.99,,2013-06-24 20:35:00,
2013-06-24 17:15:00,87.0,-99.9,29.94,North,-999,-999.0,-999.0,-999,-99.99,,,-99.99,,2013-06-24 21:15:00,
2013-06-24 17:26:00,87.0,-99.9,29.94,North,-999,-999.0,-999.0,-999,-99.99,,,-99.99,,2013-06-24 21:26:00,
2013-06-24 17:30:00,85.0,-99.9,29.93,North,-999,-999.0,-999.0,-999,-99.99,,,-99.99,,2013-06-24 21:30:00,
2013-06-24 18:07:00,85.0,-99.9,29.93,North,-999,-999.0,-999.0,-999,-99.99,,,-99.99,,2013-06-24 22:07:00,
2013-06-24 18:30:00,81.0,-99.9,29.94,North,-999,-999.0,-999.0,-999,-99.99,,,-99.99,,2013-06-24 22:30:00,
2013-06-24 19:06:00,81.0,-99.9,29.94,North,-999,-999.0,-999.0,-999,-99.99,,,-99.99,,2013-06-24 23:06:00,
2013-06-24 19:14:00,81.0,-99.9,29.94,North,-999,-999.0,-999.0,-999,-99.99,,,-99.99,,2013-06-24 23:14:00,
2013-06-24 19:30:00,79.0,-99.9,29.94,North,-999,-999.0,-999.0,-999,-99.99,,,-99.99,,2013-06-24 23:30:00,
2013-06-24 20:07:00,79.0,-99.9,29.94,North,-999,-999.0,-999.0,-999,-99.99,,,-99.99,,2013-06-25 00:07:00,
2013-06-24 20:24:00,79.0,-99.9,29.94,North,-999,-999.0,-999.0,-999,-99.99,,,-99.99,,2013-06-25 00:24:00,
2013-06-24 20:30:00,78.0,-99.9,29.95,North,-999,-999.0,-999.0,-999,-99.99,,,-99.99,,2013-06-25 00:30:00,
2013-06-24 21:04:00,78.0,-99.9,29.95,North,-999,-999.0,-999.0,-999,-99.99,,,-99.99,,2013-06-25 01:04:00,
2013-06-24 21:18:00,78.0,-99.9,29.95,North,-999,-999.0,-999.0,-999,-99.99,,,-99.99,,2013-06-25 01:18:00,
2013-06-24 21:24:00,78.0,-99.9,29.95,North,-999,-999.0,-999.0,-999,-99.99,,,-99.99,,2013-06-25 01:24:00,
2013-06-24 21:45:00,74.0,-99.9,30.02,North,-999,-999.0,-999.0,-999,-99.99,,,-99.99,,2013-06-25 01:45:00,
2013-06-24 22:08:00,74.0,-99.9,-100.00,North,-999,-999.0,-999.0,-999,-99.99,,,-99.99,,2013-06-25 02:08:00,
2013-06-24 22:26:00,74.0,-99.9,30.02,North,-999,-999.0,-999.0,-999,-99.99,,,-99.99,,2013-06-25 02:26:00,
2013-06-24 22:38:00,74.0,-99.9,30.02,North,-999,-999.0,-999.0,-999,-99.99,,,-99.99,,2013-06-25 02:38:00,
2013-06-24 23:08:00,68.0,-99.9,30.01,North,-999,-999.0,-999.0,-999,-99.99,,,-99.99,,2013-06-25 03:08:00,
2013-06-24 23:30:00,69.0,-99.9,29.97,North,-999,-999.0,-999.0,-999,-99.99,,,-99.99,,2013-06-25 03:30:00,